Wind_Speed
12 12 11 11 12 12 12 11 11 11 12 12 13 13 14 14 15 15 15 14 15 15 15 16 16 17 17 19 20 21 22 21 20 16 11 20 21 14 11 10 7 4 7 11 9 5 3 3 5 6 3 1 2 2 3 4 3 2 2 4 5 5 5 3 3 4 3 7 8 8 6 1 5 6 3 7 12 13 12 10 10 11 12 15 22 29 30 31
12 12 12 12 12 12 12 12 12 12 12 13 13 14 14 14 14 14 15 15 15 15 15 16 16 17 17 19 20 21 22 22 18 15 23 26 20 17 17 15 10 6 8 12 12 9 5 3 5 5 3 0 2 2 2 3 3 3 3 4 6 5 3 3 4 6 5 8 11 9 5 3 3 4 3 5 8 13 14 9 12 16 14 16 22 26 27 30
13 13 13 12 12 12 12 12 12 12 13 13 14 14 14 14 14 14 14 14 14 14 15 15 16 16 18 19 19 20 21 17 9 13 26 24 21 22 18 17 14 11 12 12 10 11 8 2 2 2 3 1 3 2 2 3 2 3 4 4 6 3 3 4 4 7 8 11 11 8 5 6 5 1 4 7 9 12 14 9 12 15 14 15 15 19 23 26
14 14 13 13 13 12 12 12 12 13 13 13 14 14 14 15 14 14 14 14 14 14 14 15 16 17 18 19 18 19 16 9 4 9 17 15 21 24 20 20 17 15 16 13 9 10 8 4 3 1 2 2 3 2 3 4 2 2 4 5 5 2 5 6 5 6 9 13 9 5 6 8 8 3 7 10 10 6 9 11 15 18 17 17 14 15 19 21
15 15 14 14 13 13 13 12 13 13 13 14 14 15 15 15 15 15 14 14 14 14 15 14 16 17 19 20 18 16 8 2 3 3 6 7 16 22 23 22 19 17 17 14 11 8 8 4 0 0 2 3 3 1 4 6 3 3 4 5 6 5 6 7 6 6 8 8 4 5 6 4 7 4 7 10 10 5 7 10 17 20 18 18 16 15 15 15
16 15 15 15 14 14 13 13 13 13 14 14 14 15 15 15 15 15 14 14 14 13 14 14 16 17 19 21 15 9 2 1 3 4 7 5 4 16 26 24 20 19 18 16 10 5 5 3 3 2 2 3 5 4 5 5 4 4 6 4 7 8 7 7 5 5 8 6 3 4 4 3 4 5 1 6 10 6 6 9 15 17 17 19 17 14 13 12
17 16 16 15 14 14 14 13 14 13 14 13 14 14 14 15 15 15 14 14 14 13 14 14 16 16 19 20 9 2 2 6 7 4 8 8 6 6 23 26 23 21 19 15 9 5 3 4 4 4 3 3 4 6 6 4 4 6 7 6 7 8 8 9 7 5 8 8 3 2 4 6 5 4 2 4 8 10 11 11 13 15 16 19 16 13 13 13
17 18 17 16 15 14 14 14 14 14 14 13 14 14 14 15 14 15 14 14 14 13 13 13 14 15 18 17 5 0 1 11 12 1 7 8 7 2 17 24 23 21 19 17 12 7 4 4 6 4 3 5 5 5 6 4 4 7 9 8 6 6 8 8 7 7 7 7 4 4 7 3 3 4 5 6 9 13 14 13 14 14 15 15 14 14 15 14
17 18 17 16 16 15 14 14 14 14 14 13 14 13 14 15 14 15 14 14 14 12 12 12 13 14 15 11 3 2 7 22 19 4 7 8 4 5 14 20 24 22 17 17 14 8 4 5 7 6 4 5 5 6 4 4 4 6 9 9 7 7 8 7 5 7 7 5 1 3 8 1 7 6 6 5 10 13 13 14 14 14 14 13 13 15 16 15
19 17 17 17 16 16 15 14 14 14 14 14 14 14 14 15 15 15 14 14 13 12 12 11 12 13 12 8 1 3 10 20 17 7 4 4 3 8 15 18 23 24 17 14 13 10 7 8 5 4 3 4 5 6 3 5 4 5 5 6 8 9 8 5 4 5 5 3 3 3 6 4 4 6 4 3 10 14 14 14 13 13 13 11 12 14 15 15
21 19 17 17 17 16 15 14 14 14 14 14 14 15 15 15 15 15 14 14 12 12 11 10 10 11 10 6 1 6 5 6 10 6 2 3 3 9 16 16 19 24 20 12 13 17 15 13 4 1 2 3 5 5 3 5 4 6 6 6 8 8 7 4 2 4 2 3 4 7 2 6 3 6 9 8 10 14 17 15 13 13 12 12 15 14 12 12
21 21 19 17 17 17 15 14 14 14 14 14 15 15 15 15 16 15 15 14 12 11 10 10 9 9 8 4 7 17 9 6 8 4 3 5 9 9 11 13 17 22 21 12 13 22 22 17 5 1 4 2 3 4 5 6 4 6 6 4 7 5 6 7 4 4 4 4 5 6 2 6 4 5 13 13 10 12 17 15 13 13 12 14 15 12 11 12
20 22 21 18 17 17 17 15 14 15 15 15 15 16 16 16 16 15 15 14 13 11 10 10 9 9 5 2 16 29 19 12 15 18 18 16 17 14 11 13 18 20 20 17 16 22 24 18 7 3 5 2 3 4 6 6 3 5 4 3 4 4 5 7 4 5 6 5 5 6 0 6 5 6 14 13 12 13 15 14 13 12 12 13 13 12 10 10
20 21 20 19 18 18 17 16 16 16 15 15 15 16 17 17 17 16 15 14 13 11 10 9 9 7 3 7 22 28 25 24 28 30 27 23 21 18 14 13 19 22 20 19 19 18 21 18 9 4 4 3 5 6 8 7 3 4 3 1 1 0 4 8 3 6 5 4 6 8 3 7 5 7 14 13 13 15 15 12 12 12 11 12 12 12 10 8
20 20 19 20 20 18 18 17 16 15 15 14 15 16 18 18 18 17 15 14 13 11 10 11 9 5 3 10 20 19 16 15 21 30 29 26 20 15 14 11 17 26 23 20 18 15 18 16 7 3 4 4 4 5 6 4 3 2 2 4 1 3 4 8 4 6 5 3 6 8 3 5 4 9 15 12 12 15 16 12 11 12 13 13 10 11 10 9
20 20 19 20 20 19 18 18 17 16 14 14 15 17 18 19 18 16 15 13 12 11 9 9 6 5 1 7 10 11 8 7 16 26 25 24 21 17 16 10 11 20 23 21 19 15 14 11 4 3 4 4 3 3 3 4 4 2 1 4 2 3 3 5 5 4 7 3 3 6 4 3 2 8 12 11 13 15 15 12 13 14 13 13 11 10 10 10
20 19 18 18 20 20 18 17 18 16 14 14 15 17 18 18 17 15 15 14 12 10 8 7 3 4 5 8 8 7 6 11 17 19 18 20 21 23 18 7 8 11 17 17 15 11 7 6 3 3 4 4 3 4 2 4 4 4 0 3 3 3 3 2 5 5 5 5 4 5 5 4 2 9 12 11 15 16 15 13 13 13 12 12 11 11 10 8
20 19 18 18 18 19 18 17 17 15 13 14 14 17 19 19 16 15 16 13 8 6 7 8 4 1 5 8 6 4 4 9 13 13 16 15 15 21 16 6 5 3 8 8 7 6 3 2 3 3 3 5 5 5 5 5 6 4 2 2 3 3 3 4 5 4 5 7 7 4 5 8 2 7 12 12 15 16 14 12 11 12 12 12 11 11 9 8
20 19 18 18 17 18 18 16 16 14 12 13 15 17 18 16 11 9 8 5 2 1 2 5 6 2 4 6 6 6 10 12 11 10 13 12 10 14 13 9 5 1 5 4 4 6 4 2 4 5 6 7 7 6 7 6 7 7 5 4 4 4 4 5 5 5 5 6 7 6 6 8 1 5 11 11 11 13 13 12 10 10 11 11 10 9 9 8
20 19 17 17 17 16 17 16 14 12 10 12 13 12 11 6 3 2 2 5 7 7 4 4 9 6 9 7 2 8 16 12 7 7 11 13 10 8 6 5 2 2 4 5 5 5 5 4 6 7 7 8 8 7 8 8 7 6 5 5 6 5 6 5 4 6 6 6 8 8 3 2 3 5 13 11 10 12 13 13 11 10 10 10 11 10 9 9
20 18 17 16 16 14 15 15 12 11 10 10 9 5 2 2 1 1 1 5 11 14 12 9 12 13 15 13 9 13 13 9 7 6 12 14 10 6 3 3 3 3 4 6 5 3 5 7 8 7 7 8 8 8 8 8 8 7 5 4 5 5 6 4 4 7 6 6 7 5 7 8 7 5 10 12 13 11 10 13 13 15 14 11 12 12 10 9
18 17 17 15 13 12 13 13 12 10 9 9 8 5 5 6 4 5 4 5 8 14 15 13 14 16 20 23 18 11 6 7 11 10 11 13 11 6 4 4 5 4 3 5 5 4 7 8 7 7 6 7 7 8 9 8 8 6 4 3 4 4 2 4 4 6 6 6 3 8 12 7 8 9 10 11 13 9 8 13 14 17 15 11 11 11 10 11
16 16 16 13 11 11 11 13 11 8 10 11 11 10 10 10 7 9 7 5 8 9 11 11 13 14 18 20 14 8 6 6 7 10 10 13 10 7 6 5 6 4 4 7 7 6 6 5 6 7 7 8 7 8 9 8 7 6 4 4 5 3 2 2 5 6 7 4 6 12 11 5 6 10 11 9 11 11 10 12 13 13 13 12 11 10 10 11
15 14 14 12 10 9 10 10 8 9 15 15 15 19 19 17 13 10 6 3 7 7 8 13 11 11 17 13 5 8 7 7 7 9 10 12 9 8 8 7 7 6 7 8 9 7 4 4 8 8 8 10 8 8 10 8 6 6 6 5 7 6 4 4 4 4 4 4 12 14 8 4 3 8 11 8 10 11 10 12 12 11 11 13 12 11 10 10
13 12 12 10 8 8 8 7 9 13 14 13 18 23 22 20 18 11 4 2 5 4 6 11 8 11 20 13 6 7 4 6 9 10 9 12 12 9 7 6 6 8 10 9 8 7 5 5 11 11 9 11 10 8 9 9 6 7 6 8 12 9 4 4 3 1 2 3 7 10 6 3 2 6 11 9 8 10 10 11 12 10 11 11 11 10 10 10
11 10 10 8 7 8 7 4 7 10 8 10 14 16 15 15 13 9 4 2 4 3 4 7 7 10 14 11 8 5 1 5 11 13 13 14 16 11 7 6 5 9 11 8 5 4 5 7 12 13 11 10 10 8 8 9 7 6 6 10 14 8 4 5 4 1 4 5 6 7 6 2 2 4 8 8 10 10 9 10 11 10 10 9 9 9 10 10
10 8 8 8 9 9 7 3 5 4 4 7 11 13 14 16 9 9 4 2 3 4 6 7 6 7 9 13 13 8 2 4 6 9 12 15 16 12 9 7 6 7 7 6 5 4 7 9 11 13 11 10 9 8 9 9 7 5 5 10 10 7 6 8 6 4 4 2 1 3 6 4 3 5 7 8 11 10 8 10 10 9 10 10 9 10 11 10
6 5 7 8 10 11 9 7 9 4 5 10 17 17 20 22 7 10 3 1 2 2 5 5 7 6 6 12 16 9 5 3 4 7 13 21 18 11 9 9 8 9 8 8 6 3 9 11 12 14 11 9 8 8 9 9 7 6 6 7 7 7 8 8 7 6 3 3 1 3 6 5 2 4 7 7 9 9 8 9 10 10 10 11 11 11 11 10
4 4 6 8 7 9 10 10 12 10 11 16 19 19 23 20 3 7 1 1 3 2 4 5 7 5 4 10 13 9 6 1 2 6 12 20 17 9 7 7 8 10 9 8 6 4 8 10 11 13 11 8 8 8 10 11 8 6 6 6 4 5 6 7 7 4 2 2 4 9 8 5 1 4 7 7 7 9 7 7 9 9 10 10 10 11 9 9
3 2 5 7 6 5 6 10 12 11 13 15 16 18 20 10 3 3 0 2 3 1 3 3 5 4 8 10 9 11 8 3 3 3 7 12 12 7 5 5 6 8 8 6 7 6 7 8 8 9 9 8 8 9 11 12 9 5 5 6 2 1 1 4 3 2 3 3 6 11 10 7 4 5 7 5 4 10 10 8 10 10 11 11 10 10 8 8
3 3 4 6 6 2 3 4 5 10 12 12 15 16 10 2 1 2 3 2 3 0 2 2 5 6 10 10 7 9 9 5 4 2 6 7 8 6 6 6 4 5 6 6 7 7 6 9 9 6 7 9 9 9 9 10 10 7 4 4 3 2 2 1 2 2 5 6 5 9 8 6 5 5 7 4 2 9 9 10 14 13 13 11 9 9 8 8
3 3 4 5 6 5 5 6 6 12 13 11 12 7 0 2 1 3 3 4 3 1 1 3 5 6 10 9 8 9 7 4 4 2 5 6 6 6 6 7 5 5 6 6 5 6 7 8 7 6 7 10 10 8 6 7 9 8 5 5 4 1 1 3 3 2 5 6 5 8 7 3 2 1 3 4 7 9 5 7 14 15 14 13 11 9 7 7
6 6 6 6 7 8 10 10 10 12 11 10 9 2 2 1 2 4 4 4 3 3 4 1 5 7 11 8 8 9 6 4 3 2 5 6 6 6 7 6 7 7 4 4 5 5 6 6 7 9 7 10 11 8 6 6 7 8 6 5 5 4 4 5 3 2 3 4 3 5 6 2 0 2 2 6 9 9 8 9 12 13 13 13 11 10 8 8
7 8 8 8 8 10 10 8 8 10 9 9 4 1 2 2 2 2 2 2 5 7 8 5 3 9 10 7 7 8 6 4 4 3 5 7 6 6 8 8 8 7 4 4 5 6 8 6 8 10 6 8 12 10 9 6 5 7 5 6 5 5 5 4 4 3 4 4 2 3 2 1 1 2 4 9 9 9 11 10 10 10 10 10 9 9 9 8
9 8 9 9 9 10 8 6 7 8 6 4 1 1 2 4 1 1 1 4 6 6 11 11 2 9 7 6 7 8 5 4 5 3 3 7 8 6 8 8 7 6 5 5 4 5 9 8 6 7 5 8 12 9 9 8 4 5 3 5 5 6 6 2 4 5 5 3 2 3 1 1 2 3 6 11 11 11 12 10 10 10 9 9 8 7 8 7
10 9 8 8 10 7 5 6 6 4 3 2 2 2 2 3 2 2 3 6 7 7 12 10 1 7 5 4 6 9 7 2 4 4 2 6 9 7 8 7 7 7 6 5 3 3 7 6 4 6 7 9 11 9 10 9 6 3 4 6 5 6 8 4 3 2 4 5 0 1 3 2 3 2 4 11 12 11 12 11 12 11 10 9 8 6 6 6
12 11 7 9 10 6 4 6 7 7 4 2 2 2 2 2 3 3 4 8 10 9 7 4 0 3 5 5 5 9 9 4 2 4 2 4 7 9 9 7 7 9 7 6 2 2 6 4 5 8 9 9 8 9 10 10 8 5 6 6 3 4 3 4 3 0 3 4 1 0 5 5 4 2 4 10 11 10 10 11 12 11 11 9 8 7 6 6
13 9 7 10 8 6 7 8 9 6 3 1 2 3 2 1 3 5 7 9 10 9 4 2 2 1 4 6 5 9 10 6 3 4 3 3 3 8 10 7 6 9 9 7 3 2 3 1 5 7 9 8 5 7 8 7 5 5 7 6 5 3 2 1 4 3 2 3 1 1 5 4 3 4 7 10 11 11 11 11 12 12 11 9 8 8 7 7
10 5 4 7 1 9 10 11 9 3 1 1 2 2 1 3 6 7 9 10 9 7 3 1 2 3 1 4 5 8 10 7 5 3 3 3 3 7 10 7 6 10 10 8 5 3 2 2 4 6 7 8 4 4 7 6 1 3 4 3 3 4 4 3 3 4 4 4 2 4 5 3 2 6 10 12 12 14 13 11 11 11 11 9 8 8 7 6
3 2 2 4 6 12 12 11 6 1 1 1 1 2 3 5 7 8 10 11 8 4 3 2 1 3 2 1 1 4 8 8 6 3 3 5 4 7 11 9 7 10 12 9 5 2 0 3 3 5 3 7 6 4 7 7 3 3 3 2 2 2 2 2 2 2 5 5 3 4 3 3 2 5 11 14 13 13 13 12 10 10 10 9 8 8 7 6
1 1 2 3 7 12 10 6 2 0 1 2 2 3 4 5 6 9 12 11 8 5 5 4 4 3 3 3 2 0 4 7 6 4 3 6 5 4 8 10 8 8 10 9 6 3 1 3 3 3 2 6 6 6 7 9 7 6 5 4 4 4 4 4 2 2 4 4 4 5 3 3 1 2 7 12 12 11 12 11 9 9 10 9 7 7 7 5
0 1 1 2 7 12 7 2 1 1 1 2 2 3 5 5 6 9 11 10 8 7 5 4 5 4 3 3 2 1 1 4 7 5 3 5 8 6 7 11 11 8 7 7 6 5 3 3 3 2 3 5 6 6 7 10 8 6 4 4 4 4 4 6 4 3 3 4 2 3 2 2 1 2 6 10 10 11 11 11 10 9 10 10 8 7 6 4
1 1 2 4 9 13 3 2 2 1 2 3 5 6 6 6 6 9 10 8 7 6 3 3 4 2 1 2 2 2 0 2 5 7 5 5 9 11 10 11 13 10 6 5 6 5 3 3 3 2 4 3 5 6 1 6 7 5 2 3 5 3 4 5 5 4 4 4 3 3 1 2 1 3 8 11 11 11 10 11 13 10 8 9 9 7 6 6
1 1 2 5 7 9 2 1 1 1 2 4 7 7 7 7 8 9 9 7 6 5 2 2 1 1 2 2 2 3 1 2 2 5 6 4 7 12 13 11 13 11 6 5 6 5 3 2 3 2 1 3 4 5 4 2 2 3 3 4 5 5 5 3 2 4 4 4 5 5 2 2 0 5 11 13 12 12 11 10 12 11 9 8 8 6 5 8
2 0 1 4 3 3 1 2 1 2 3 5 7 7 7 6 7 9 10 9 9 7 4 2 1 3 3 2 3 3 0 2 1 1 3 3 4 10 13 12 14 12 7 8 8 5 4 3 3 4 4 3 3 3 3 3 2 2 3 5 5 6 7 4 2 4 3 3 4 5 4 2 3 9 14 14 14 14 11 10 10 10 10 9 7 5 5 7
1 1 1 2 3 1 2 2 2 3 4 4 4 5 5 4 5 7 7 8 8 5 3 2 2 4 3 3 3 3 2 1 0 1 1 2 3 6 11 14 15 12 10 13 11 6 4 3 3 6 6 6 6 5 3 4 4 4 5 6 5 5 7 6 4 3 4 4 3 2 9 10 8 11 14 14 15 14 12 12 11 10 10 9 7 7 7 8
1 1 1 1 0 1 3 4 4 5 4 3 2 4 6 7 6 4 3 4 4 3 2 1 2 2 2 3 3 2 4 4 3 3 3 3 5 2 6 9 14 15 13 13 10 6 4 3 5 7 2 3 5 4 1 4 3 3 5 7 7 6 6 6 5 5 7 6 1 3 14 17 11 11 15 16 16 15 14 13 13 12 10 9 8 10 10 10
0 1 2 1 1 2 3 4 6 7 8 6 3 4 8 8 5 2 2 4 5 4 2 2 3 4 5 5 1 1 4 5 4 4 3 3 5 4 3 2 4 10 11 10 8 6 5 4 6 6 4 4 1 2 4 7 4 4 4 2 4 7 8 7 4 5 9 7 6 10 15 15 13 13 14 15 14 15 15 13 13 12 11 11 12 13 12 11
0 1 2 1 2 2 3 4 5 6 8 7 4 4 5 5 4 3 3 4 6 5 2 2 4 7 9 6 2 2 3 3 2 4 3 3 4 4 3 5 5 2 3 7 6 4 4 2 3 7 7 7 5 1 7 10 6 8 10 8 4 6 8 6 3 4 6 6 12 17 12 7 7 9 10 10 11 12 12 11 12 13 12 13 13 13 12 12
0 2 2 1 3 3 3 4 3 3 4 3 3 4 3 2 2 3 3 2 2 5 3 2 5 8 9 5 4 3 1 3 3 1 2 1 4 4 2 0 4 6 4 3 2 1 4 2 2 6 7 5 6 5 9 12 11 9 9 10 8 8 9 8 6 9 10 9 13 18 13 6 4 7 10 10 9 11 11 11 12 11 11 13 14 12 11 11
3 5 3 2 3 3 2 3 2 2 3 2 2 2 3 2 2 3 4 2 4 4 3 4 6 7 6 4 3 0 3 4 5 4 3 3 2 2 1 1 4 4 4 2 1 2 4 2 1 6 6 1 4 6 7 10 13 10 8 9 9 5 5 5 3 4 9 13 15 14 9 5 6 9 11 10 10 12 12 12 11 9 10 13 13 12 12 11
6 6 3 2 3 3 3 3 2 1 1 2 2 2 3 4 3 3 3 3 4 4 3 4 5 4 4 5 3 4 4 4 6 5 3 3 3 3 3 2 4 3 3 1 1 2 4 5 2 4 5 1 4 5 5 6 8 5 4 5 4 3 3 5 6 5 9 16 13 9 7 8 12 14 13 12 12 12 12 11 10 10 12 12 11 12 12 10
Wind_Direction
309 309 310 311 312 315 315 315 316 316 321 320 320 321 319 319 319 319 318 313 312 313 315 316 317 321 320 322 325 324 324 318 310 305 265 246 246 237 227 220 212 236 250 235 231 239 236 217 217 199 197 281 201 226 227 198 191 180 175 203 227 230 221 203 223 250 278 304 300 319 344 75 97 105 106 56 78 91 82 71 68 57 69 102 117 128 133 129
302 304 305 305 307 309 310 311 313 315 318 318 319 319 318 319 318 319 318 315 316 313 314 316 316 320 320 324 325 324 325 317 307 289 257 250 252 243 231 229 219 215 225 215 217 216 182 196 223 189 145 211 237 234 232 224 176 173 176 206 228 218 219 215 248 290 310 300 298 309 332 21 52 133 131 79 99 98 91 82 85 85 86 102 117 127 129 126
296 298 300 301 303 303 305 308 309 314 315 316 317 316 318 317 317 319 318 317 317 317 316 316 317 319 321 323 323 325 323 315 304 268 264 257 244 240 227 219 209 200 212 210 216 214 200 229 267 169 153 225 254 241 246 260 225 196 189 221 244 238 271 260 264 291 296 292 294 303 337 14 356 68 109 115 119 108 113 123 111 111 117 118 122 128 127 124
291 292 294 296 298 298 301 303 306 310 311 314 314 314 316 313 314 314 315 317 315 317 316 318 320 319 322 322 322 325 321 310 277 254 271 258 233 231 219 211 201 198 211 219 233 226 230 280 342 143 186 238 252 231 236 246 245 219 192 212 235 252 281 263 260 281 290 291 282 299 2 7 332 30 123 127 110 107 140 150 140 136 137 133 132 132 128 124
285 286 288 290 291 294 296 298 302 306 308 311 312 312 312 311 312 311 313 315 314 316 316 319 320 320 324 322 321 322 319 299 280 279 302 265 228 218 211 207 197 201 209 219 236 236 249 256 97 169 199 233 239 199 238 233 222 258 243 223 226 236 268 265 256 261 278 292 307 338 9 346 317 60 125 137 131 169 173 156 144 139 139 136 134 133 127 122
279 279 281 284 286 289 291 295 298 303 306 308 311 310 310 310 309 311 312 311 313 314 315 320 320 325 326 323 323 312 270 233 304 13 15 1 243 210 203 201 195 202 209 215 224 224 242 194 151 197 187 227 221 203 238 234 193 245 270 248 236 232 243 261 260 262 276 295 3 339 330 341 3 58 125 159 148 153 129 133 135 130 131 129 128 128 120 114
274 273 274 276 279 283 286 290 294 299 303 305 310 310 309 308 307 310 310 311 315 314 316 319 321 326 327 330 333 235 218 277 277 8 14 15 11 210 197 196 193 199 206 209 207 199 205 158 175 189 174 238 223 213 230 237 202 222 254 252 240 228 230 252 262 268 269 279 290 317 340 8 33 47 33 111 121 111 107 117 121 120 124 123 121 118 109 110
272 272 271 271 272 276 280 284 290 296 300 303 307 309 309 307 306 308 308 311 313 316 319 319 325 329 330 338 341 156 285 249 239 281 356 344 355 167 189 193 193 198 203 206 203 192 182 176 204 183 180 232 223 230 222 224 236 224 239 250 243 225 228 237 244 249 247 271 302 345 340 8 88 68 62 82 103 112 118 118 117 117 117 119 116 109 105 110
270 272 271 271 270 270 274 279 286 291 295 299 304 308 307 306 307 307 308 309 311 313 317 321 328 329 332 336 321 320 247 230 228 265 340 330 315 183 184 189 192 199 204 213 209 186 179 193 207 192 199 239 241 256 221 195 243 224 221 238 244 242 240 230 229 235 229 248 309 346 320 352 115 79 47 79 112 116 118 117 118 118 117 117 110 106 109 112
266 268 269 270 269 268 268 273 281 286 290 295 301 304 303 305 305 305 306 306 310 310 312 322 325 331 341 342 275 247 247 233 232 263 334 354 279 196 187 189 195 200 202 216 210 190 201 208 198 181 214 266 257 257 211 183 233 248 235 244 247 252 255 229 223 236 232 260 149 139 291 288 118 98 68 108 130 125 119 118 120 120 118 113 103 104 110 112
268 262 264 266 267 266 264 266 275 280 284 290 297 301 301 303 302 304 305 304 308 307 313 319 322 335 334 337 277 228 243 209 203 209 100 49 300 203 196 200 198 200 202 209 214 209 215 227 228 82 236 268 268 276 279 229 249 278 277 290 275 273 274 241 238 245 209 270 177 138 262 300 12 107 143 154 146 133 124 122 124 121 115 105 100 103 106 107
278 265 260 261 263 263 262 263 268 274 279 285 292 296 297 297 298 301 301 302 304 303 312 313 320 331 314 315 238 227 212 151 185 227 286 304 298 257 234 233 213 205 204 198 217 219 219 230 234 134 244 294 305 278 277 263 261 262 246 266 283 308 292 255 246 218 180 228 198 117 16 307 339 138 153 149 149 137 123 124 126 120 111 103 101 103 106 113
290 274 260 256 260 260 260 260 262 268 272 279 287 293 295 292 293 297 299 301 302 300 306 309 315 312 304 287 243 237 238 249 268 288 281 282 293 275 265 261 236 218 209 205 219 224 221 227 219 211 256 302 292 272 293 304 303 268 229 192 271 344 314 261 228 167 172 219 179 117 305 273 284 176 159 149 150 136 121 126 127 118 111 107 107 107 107 116
296 283 266 256 257 256 257 257 257 261 266 274 282 289 291 290 290 293 296 298 299 303 303 303 307 297 265 260 264 260 262 270 280 283 272 273 286 279 271 262 241 225 214 216 222 224 224 226 220 233 267 235 251 295 312 316 321 286 274 197 203 52 281 277 251 143 166 230 149 123 205 252 274 184 167 157 149 135 124 128 124 116 111 110 109 109 107 102
297 292 279 262 256 254 253 254 255 258 262 271 279 285 286 289 292 292 295 297 297 298 297 295 284 277 289 269 275 285 284 280 274 265 260 264 272 276 268 252 236 224 215 219 221 221 221 219 211 226 263 239 238 292 304 312 324 309 268 289 333 154 261 297 287 159 176 240 134 134 209 254 254 182 170 159 146 132 126 131 124 118 114 112 109 106 107 101
295 294 287 269 258 255 253 253 255 258 263 269 276 281 284 291 295 295 296 294 294 292 291 294 255 201 249 275 287 308 288 241 247 251 251 254 248 242 248 260 260 229 214 219 221 221 217 205 189 197 232 252 220 232 289 319 313 327 177 244 257 166 236 301 299 216 188 199 149 170 203 259 239 179 173 155 144 132 129 137 128 122 119 115 112 108 110 110
292 294 290 273 259 254 252 253 254 257 264 271 276 280 288 297 297 298 296 288 292 290 266 265 235 193 243 274 303 309 257 229 240 247 246 246 238 234 240 268 287 230 203 212 219 217 204 182 184 193 206 225 187 171 231 260 259 304 351 214 243 187 187 230 289 285 184 185 222 202 206 237 161 162 174 159 145 137 135 142 132 126 120 112 112 110 112 113
289 292 289 278 265 254 248 251 254 257 263 272 278 282 290 296 291 292 290 281 289 289 256 253 252 218 249 263 277 273 281 266 251 244 243 245 238 232 226 228 287 240 186 203 214 202 172 162 181 191 212 208 193 171 194 216 203 224 202 186 249 219 203 206 242 268 169 198 225 184 217 232 150 135 170 164 149 142 134 132 124 119 112 106 108 107 109 108
289 290 289 283 273 257 248 247 251 255 262 273 279 287 295 296 290 286 271 248 225 239 241 221 202 190 288 259 232 262 311 299 263 240 236 233 227 223 213 218 266 270 173 185 208 198 162 152 179 197 218 208 203 184 187 201 185 196 193 182 211 210 232 216 227 251 174 191 220 184 215 231 173 119 160 159 139 128 118 114 113 109 105 102 103 103 106 102
288 286 288 283 275 262 249 241 244 252 258 270 285 302 308 301 291 285 209 194 210 233 261 202 197 241 295 284 277 333 335 323 269 223 223 220 199 191 197 203 213 205 195 175 192 192 150 186 210 205 208 205 205 179 181 208 200 202 198 202 220 213 237 223 221 252 187 174 225 200 188 334 17 135 150 134 104 108 114 117 115 108 106 107 108 106 104 101
288 283 282 278 274 264 251 241 237 241 247 259 280 303 295 194 142 20 335 225 224 233 253 242 217 236 261 268 303 339 342 324 295 258 232 218 182 162 188 167 162 209 208 173 180 171 165 207 218 200 196 201 201 174 180 214 220 223 208 208 245 229 244 246 227 246 199 182 227 167 80 23 14 93 117 104 95 103 119 121 117 115 113 109 107 105 103 101
288 282 278 275 273 262 251 243 231 229 240 249 253 242 244 242 257 330 316 266 245 229 236 245 238 246 256 261 276 302 309 286 293 289 239 206 179 173 182 155 169 196 187 180 181 179 201 220 205 186 191 196 198 182 187 212 223 230 208 193 251 241 260 298 273 249 208 200 217 97 81 37 23 58 73 89 102 104 110 117 120 120 115 107 105 103 104 101
288 284 280 275 272 258 244 239 227 223 233 233 234 237 251 253 272 328 322 279 280 246 225 232 237 249 257 262 261 248 256 255 267 279 233 194 179 178 180 172 180 189 195 198 191 184 206 219 188 183 186 190 205 195 191 216 229 223 194 188 239 236 173 282 286 247 212 184 118 100 89 54 40 65 68 74 99 103 100 103 104 106 105 105 105 100 100 101
287 285 281 274 266 249 233 229 222 227 234 233 239 248 257 261 271 311 326 285 280 265 233 221 218 236 246 252 225 189 219 232 230 263 234 194 176 175 187 184 176 198 216 208 199 199 218 193 173 186 192 189 202 198 192 210 233 225 201 192 232 238 191 202 267 263 221 118 109 106 79 20 47 95 99 87 93 98 94 93 88 86 93 96 96 92 92 94
286 278 275 271 253 230 214 220 234 235 235 233 247 264 272 272 273 275 281 299 270 257 236 216 201 239 239 228 198 191 219 240 226 244 238 196 177 171 188 188 182 205 209 204 203 206 232 200 173 189 204 193 195 199 194 193 215 243 217 201 227 232 193 208 276 318 152 143 141 125 88 340 313 115 124 118 102 95 94 97 95 94 95 94 95 96 95 90
284 273 270 258 226 205 192 215 248 234 230 234 257 289 295 288 280 245 221 304 268 230 180 175 173 222 219 185 173 182 257 269 230 229 237 210 185 174 184 185 188 207 199 196 211 200 215 205 181 189 202 197 199 207 200 180 191 242 208 198 223 219 182 242 271 179 167 204 207 157 128 172 238 158 143 130 117 111 104 103 105 105 102 101 103 103 104 99
282 272 265 242 209 185 179 253 288 242 210 248 292 319 314 310 286 210 203 332 264 207 155 158 171 181 172 162 161 154 178 251 213 210 225 209 185 174 190 185 175 200 187 180 218 190 182 198 190 187 195 201 205 210 200 178 183 228 192 188 210 191 187 232 240 225 211 197 221 153 130 137 177 182 169 142 122 119 115 111 110 108 106 108 108 108 108 106
280 257 244 224 201 191 208 277 307 299 245 277 305 312 316 323 290 182 166 346 221 162 135 171 197 172 151 161 160 170 231 226 162 188 205 200 187 173 194 193 173 187 187 186 211 178 172 195 194 186 195 208 206 206 199 184 196 232 210 195 197 176 193 218 221 232 214 129 167 184 134 121 180 184 163 149 129 125 126 121 117 112 111 110 110 111 106 104
280 242 223 209 202 208 229 268 286 288 288 300 312 311 318 326 262 165 66 256 214 173 126 160 197 185 141 148 158 199 243 295 181 184 182 191 189 175 192 186 166 187 204 198 196 181 180 194 194 189 201 211 199 204 206 199 211 228 213 211 194 161 189 210 213 221 163 145 205 194 162 123 177 203 165 165 161 149 138 126 124 119 116 113 112 112 104 101
294 261 221 211 216 227 252 267 272 295 312 314 320 319 321 330 156 153 97 216 249 218 114 133 184 169 148 145 160 204 222 269 259 170 149 177 178 165 171 169 164 188 210 206 199 209 193 189 202 200 201 203 195 204 211 207 210 216 209 216 213 104 167 214 214 121 141 234 227 196 182 141 154 214 189 181 174 159 151 140 138 128 121 121 117 113 105 103
281 258 231 224 229 257 308 262 275 334 336 323 325 323 323 6 136 188 172 255 301 151 73 140 168 151 151 152 163 194 209 253 267 162 149 167 169 164 165 181 188 177 197 210 212 229 216 197 207 205 188 191 198 210 216 209 207 214 211 189 200 319 348 252 307 70 173 243 251 194 180 148 154 204 204 202 159 162 162 147 144 139 131 130 123 118 113 107
307 283 265 255 252 262 269 249 284 328 331 330 337 332 224 112 312 223 232 322 359 65 320 180 166 151 155 162 178 186 190 225 250 203 163 160 171 185 179 185 177 159 194 204 189 216 231 220 211 202 195 190 193 206 216 213 204 210 208 157 160 225 215 210 242 209 200 246 243 176 147 118 146 167 210 189 158 160 157 132 139 138 134 133 126 122 116 109
325 309 292 279 269 264 262 263 285 308 319 332 338 327 161 141 201 215 258 323 13 342 324 198 167 156 155 168 188 186 185 205 217 196 182 167 165 193 205 201 169 154 177 174 158 188 223 252 226 203 203 195 192 192 199 214 200 199 202 160 154 160 168 208 222 191 208 241 242 153 125 106 178 52 73 138 142 139 125 123 131 129 128 129 124 122 116 112
325 315 304 293 278 267 264 268 282 290 311 330 331 160 148 193 220 196 210 319 334 329 332 323 191 158 158 176 187 183 189 216 208 182 189 178 169 195 209 208 179 154 131 147 167 183 198 236 226 203 198 189 196 198 185 179 178 196 184 137 159 169 157 192 194 174 200 212 341 39 106 192 161 72 89 113 112 110 116 118 116 114 117 119 117 119 116 115
327 321 314 301 285 273 264 261 269 280 307 327 280 186 188 204 265 27 60 341 333 327 331 322 228 156 161 179 188 192 193 213 208 202 210 185 185 198 198 205 195 159 134 162 187 188 196 232 233 201 208 188 192 199 175 160 181 207 152 130 189 184 145 143 179 173 170 162 20 33 105 27 73 72 87 105 103 107 117 115 113 116 116 116 114 115 117 118
328 328 320 297 286 280 257 236 230 224 271 284 192 187 224 229 317 6 341 334 326 320 330 328 173 146 157 164 184 202 200 206 190 196 240 184 183 195 196 206 197 172 160 174 204 180 185 246 256 190 217 210 188 180 174 177 187 189 170 183 198 154 129 125 177 172 105 122 187 101 124 106 107 97 97 110 108 115 126 125 126 127 122 120 117 115 118 116
341 337 313 282 277 268 227 200 181 183 230 268 178 197 252 282 349 354 311 313 312 313 328 327 211 148 166 165 180 190 189 203 188 181 226 192 184 193 196 206 190 182 180 168 209 190 158 248 261 189 211 231 195 168 180 186 166 160 200 195 136 104 111 109 142 224 67 124 229 223 143 158 166 166 139 129 124 130 137 132 131 130 127 125 118 118 114 110
345 332 298 293 280 229 205 186 175 193 233 204 206 250 270 291 331 323 304 306 309 312 320 282 300 1 150 161 185 182 174 186 187 176 208 221 203 190 189 201 194 191 192 169 194 258 148 221 267 207 203 225 194 155 183 207 171 157 185 165 124 158 225 105 142 177 147 133 116 136 159 182 189 160 156 152 145 145 143 138 138 137 134 129 120 120 117 113
339 322 306 334 345 175 177 171 175 216 268 145 215 252 301 297 294 300 301 306 308 310 313 254 306 338 123 161 185 177 169 179 181 176 198 193 218 206 190 190 197 199 197 176 184 242 153 142 264 247 206 197 190 159 183 219 281 89 133 149 143 175 187 167 156 154 143 147 148 154 173 215 218 170 165 165 158 152 150 148 146 141 135 129 124 126 125 121
320 311 334 23 125 162 162 158 172 231 199 179 266 263 300 298 290 297 302 305 307 299 283 276 315 333 318 309 210 170 171 181 178 176 201 185 198 217 200 186 190 199 200 192 190 227 125 153 236 282 228 181 199 215 186 183 167 101 115 161 166 142 140 149 163 129 126 143 151 148 190 239 230 184 169 163 160 157 153 150 145 138 130 125 125 129 129 127
258 27 356 54 138 162 157 153 174 79 195 262 280 260 279 283 283 294 295 296 293 264 256 274 275 273 287 303 327 97 163 178 183 176 189 188 179 202 211 198 185 188 196 203 208 203 179 180 201 279 249 186 213 230 179 163 166 153 149 181 174 141 119 129 218 266 107 129 160 151 188 229 212 180 165 157 156 154 149 144 136 126 120 118 122 127 128 130
46 80 16 61 151 165 151 117 180 162 227 246 259 262 277 278 276 286 290 295 293 264 240 255 260 248 244 265 304 332 140 165 186 183 167 190 190 200 219 204 193 185 177 191 209 190 136 116 149 235 237 209 235 245 174 153 147 140 150 177 151 132 138 145 197 241 88 90 116 110 145 195 148 154 149 143 145 144 140 134 122 116 119 122 128 131 127 119
50 347 27 67 160 175 164 30 168 216 256 263 282 278 274 273 270 279 286 294 300 288 234 217 248 243 246 285 309 298 309 127 186 191 182 192 203 212 214 196 195 195 168 172 197 178 121 100 144 241 289 291 304 318 31 131 128 131 165 157 133 147 168 158 175 174 127 134 129 80 100 213 224 153 138 132 132 130 129 127 121 120 124 127 134 137 125 108
3 274 40 58 148 175 207 347 176 241 261 275 286 277 270 268 265 273 282 284 287 292 272 236 251 252 254 279 277 262 243 99 159 188 193 204 214 217 213 195 193 196 183 181 182 168 183 171 132 140 345 342 334 341 344 341 141 160 185 162 150 145 132 136 166 124 127 194 165 127 157 240 322 130 129 126 124 122 124 128 125 127 132 135 135 130 115 110
344 274 1 20 95 150 245 311 325 314 297 295 293 282 276 269 253 254 267 272 263 256 256 257 265 258 256 282 275 268 286 114 154 199 216 239 234 213 206 197 194 197 192 178 166 147 166 173 117 132 159 178 191 204 228 228 213 219 177 152 159 161 150 152 143 121 150 195 140 130 154 142 110 126 127 127 128 127 129 130 127 130 136 138 133 121 117 112
25 52 342 10 49 42 268 279 294 289 289 293 289 276 267 269 268 257 261 270 264 257 256 236 245 264 284 350 328 297 341 6 105 43 4 304 277 210 191 189 193 197 185 167 157 124 117 177 139 128 160 190 193 216 220 151 152 206 196 164 153 162 158 139 117 150 176 140 80 140 144 133 137 139 135 138 137 135 138 135 132 135 135 131 124 117 115 106
61 46 215 159 97 260 256 266 254 242 255 269 278 286 281 289 304 295 266 271 282 313 336 252 261 289 297 328 348 326 329 355 41 32 0 291 281 230 168 182 190 191 181 164 159 125 98 180 157 114 121 216 190 219 298 83 114 195 199 189 165 131 130 143 156 181 160 127 48 185 144 140 157 159 149 151 148 142 144 143 141 142 139 132 124 117 111 106
195 265 254 239 232 211 220 249 242 236 246 248 251 276 277 282 303 315 287 303 321 346 20 341 325 341 322 306 308 341 334 9 26 356 353 319 314 358 16 323 200 185 175 162 165 138 112 178 169 109 46 17 83 188 113 88 72 43 31 259 189 134 136 159 183 178 162 154 173 173 154 147 160 164 155 153 149 143 144 144 142 140 137 134 128 121 117 112
262 270 278 286 266 229 230 248 238 230 239 243 249 259 261 276 307 320 326 353 340 327 5 350 322 346 344 335 76 77 358 36 30 335 344 340 336 7 19 350 340 318 156 158 173 139 101 160 159 112 79 35 8 26 104 97 79 49 32 10 28 95 116 127 105 104 112 124 144 146 135 114 135 147 140 136 136 134 136 139 140 140 139 135 129 124 122 117
344 302 305 307 278 259 259 274 270 253 258 257 252 261 279 306 340 330 333 20 316 311 350 354 324 342 341 342 80 100 204 144 123 327 320 16 5 15 60 36 313 333 22 127 192 74 90 165 172 108 82 26 356 27 87 99 92 71 40 17 24 60 84 95 104 97 84 89 121 126 114 87 100 118 118 123 129 131 134 140 142 141 139 134 129 125 124 119
320 293 288 305 294 284 286 301 320 320 309 294 247 281 319 330 3 344 316 251 221 259 302 316 326 341 339 350 48 140 229 160 153 196 202 130 66 35 72 270 288 332 14 21 333 58 97 134 132 88 86 13 345 20 58 89 88 74 37 11 9 31 83 101 95 100 117 123 123 121 125 145 147 129 122 127 133 134 140 145 145 142 135 134 134 130 126 122
335 307 294 294 289 304 326 315 320 336 290 272 283 310 311 306 341 9 328 291 260 245 273 325 338 342 336 338 319 258 242 184 179 205 192 139 105 88 87 0 349 40 44 9 15 56 114 121 109 96 110 235 321 354 13 58 76 65 358 349 5 27 87 96 58 58 126 134 138 150 159 151 142 137 134 137 143 145 149 153 151 144 137 134 131 127 124 122
Height
818 817 816 815 814 813 812 812 811 810 809 808 807 806 805 804 803 802 801 800 800 799 798 797 795 794 793 791 789 787 784 782 779 779 776 767 766 769 769 769 770 771 772 772 773 773 773 774 774 774 776 777 778 777 775 774 774 780 787 794 797 794 790 782 777 774 772 769 760 753 750 750 754 753 745 744 748 751 757 760 759 758 757 761 766 771 774 777
817 816 815 814 813 812 812 811 810 809 808 807 806 806 804 803 802 801 800 799 798 798 797 796 795 793 792 790 788 786 784 780 779 775 766 763 766 767 767 768 769 770 770 771 771 772 773 774 773 774 776 778 777 775 775 773 773 780 786 791 792 786 780 773 771 769 768 769 763 755 751 749 751 752 747 755 762 756 762 768 764 766 769 769 770 773 777 778
815 815 814 813 812 811 811 810 809 808 807 807 806 804 803 802 801 800 799 798 797 797 796 795 794 793 791 789 788 786 783 780 777 767 758 760 763 762 765 766 767 768 769 769 770 771 772 773 774 775 778 779 777 775 777 774 773 777 782 789 785 776 774 769 768 767 764 763 762 758 751 749 749 747 748 759 766 761 765 770 768 773 775 775 775 775 778 780
814 813 813 812 811 810 809 809 808 807 806 806 804 804 802 801 800 799 798 797 797 796 795 794 793 792 791 789 787 785 784 780 769 757 754 757 757 758 762 763 765 766 767 769 770 771 772 773 774 775 779 781 777 776 778 775 774 775 777 783 778 771 772 767 765 765 761 758 760 758 752 752 748 745 751 759 769 771 767 762 762 769 771 773 776 777 779 781
812 812 811 811 810 809 808 807 807 806 805 804 804 802 801 800 799 798 797 796 796 795 794 793 792 791 790 788 786 785 784 777 761 752 754 753 752 755 758 761 763 765 767 769 769 770 771 773 774 776 779 780 778 778 778 771 771 775 772 773 771 770 771 765 762 763 759 757 758 756 755 755 749 749 755 758 768 771 763 757 756 760 765 769 773 777 779 782
811 810 810 809 808 808 807 806 805 805 804 803 802 801 800 799 798 797 796 795 795 794 793 793 792 791 789 787 785 784 783 770 755 753 753 752 752 753 755 759 762 764 766 768 768 769 770 772 775 777 778 778 779 778 775 769 770 777 773 768 767 767 768 763 759 760 757 757 758 755 753 753 753 756 757 756 761 759 755 756 757 759 763 766 771 776 780 784
809 808 808 807 807 806 805 805 804 803 803 802 801 800 799 798 797 796 795 794 794 793 793 792 791 790 788 786 783 784 783 767 753 755 754 752 753 752 755 758 761 764 765 766 767 769 770 772 775 775 777 777 777 775 772 769 769 776 774 768 765 764 764 761 759 760 757 755 754 752 751 753 757 758 757 757 757 755 755 759 759 761 763 766 771 776 781 785
806 806 805 805 805 804 804 803 803 802 801 801 800 799 798 797 796 795 794 794 793 792 792 791 791 789 788 786 783 784 782 765 753 755 754 754 754 753 755 757 761 763 763 765 765 767 769 772 773 772 777 776 773 772 770 771 771 773 772 767 763 761 760 758 758 759 757 753 749 750 753 757 758 756 760 763 760 757 757 760 762 765 767 769 773 778 782 786
804 804 803 803 802 802 802 802 802 801 800 800 799 798 797 795 795 794 793 793 792 792 791 790 790 789 788 787 787 785 771 756 753 756 755 755 756 755 756 757 760 761 762 763 763 767 768 769 769 769 773 772 770 770 767 773 774 768 766 765 762 760 756 755 758 757 757 752 749 752 754 756 756 757 767 767 762 761 760 763 766 767 771 773 777 780 783 786
801 801 801 801 800 800 800 800 800 799 799 798 797 797 795 794 793 792 792 791 791 791 790 790 789 788 789 786 789 781 759 751 755 756 755 756 757 756 756 756 758 760 761 762 763 766 765 764 765 765 769 769 768 768 766 771 769 761 761 762 760 758 755 755 757 755 756 753 751 756 757 755 753 760 775 772 762 762 764 768 770 771 775 777 780 783 785 787
799 798 799 798 798 798 798 798 798 798 797 796 796 795 794 793 792 791 791 791 790 790 789 789 788 789 788 787 791 775 753 751 754 754 756 756 757 758 757 757 757 758 759 760 761 762 762 761 762 765 769 768 766 766 764 763 762 759 761 762 759 757 756 755 757 755 755 756 752 754 758 756 755 764 774 770 764 763 765 772 773 774 778 779 783 785 787 789
796 796 796 796 796 796 796 796 796 796 795 795 795 793 793 792 790 790 790 789 789 789 789 788 788 788 786 789 784 763 749 752 752 753 755 755 757 757 757 758 756 756 757 759 759 758 760 760 763 768 768 766 768 768 762 757 758 759 760 765 762 758 759 756 755 755 755 757 750 752 765 765 762 768 768 764 766 765 767 773 775 776 778 780 784 787 790 791
794 793 793 793 793 794 794 794 794 794 793 793 793 792 791 789 789 789 788 789 788 788 788 787 788 787 788 786 767 751 752 753 752 753 753 754 756 755 756 757 756 756 755 756 756 756 759 760 764 767 764 767 771 766 759 755 758 759 759 764 765 766 765 755 753 754 755 756 748 755 777 775 766 769 765 762 766 768 771 775 776 777 779 781 784 787 791 792
792 791 791 791 791 791 792 792 792 791 791 791 791 790 789 788 787 787 787 787 786 787 787 786 787 785 787 778 755 751 756 754 753 752 750 753 754 753 753 754 755 755 754 755 755 755 758 759 763 765 763 766 766 763 762 762 761 762 763 764 768 776 771 755 751 755 756 755 747 757 780 776 766 769 765 762 765 768 774 777 777 779 780 783 785 787 792 794
790 789 788 788 788 789 789 789 789 789 789 789 789 788 787 786 785 785 786 785 785 786 785 785 785 785 787 773 753 751 754 754 753 748 748 752 754 753 751 751 753 753 754 754 754 755 756 759 763 766 765 763 764 768 771 769 764 764 772 775 773 777 772 757 751 753 756 755 749 759 777 773 767 768 763 762 765 768 774 778 779 781 782 784 787 789 793 795
788 787 786 786 786 786 786 787 787 787 788 787 787 786 785 784 783 784 784 784 785 784 785 785 782 784 785 767 751 749 750 750 748 745 747 749 751 751 749 750 751 751 753 753 753 755 755 758 761 763 764 764 768 773 776 778 774 769 776 781 775 774 775 766 755 750 753 756 754 760 770 770 767 767 763 762 765 768 774 779 781 783 784 785 788 791 793 796
786 785 784 784 784 784 784 785 785 786 786 786 786 784 783 782 781 782 782 783 783 782 783 782 781 785 776 756 748 748 745 745 744 743 745 745 747 748 748 750 749 749 751 751 753 754 755 758 760 762 763 765 768 773 783 791 787 779 777 779 775 772 774 772 762 752 751 757 759 760 764 766 766 765 764 764 765 768 774 780 784 785 786 787 789 792 794 796
783 783 782 781 781 782 782 783 784 784 785 785 784 783 781 779 779 779 779 781 781 782 783 781 784 781 761 748 748 745 743 743 742 742 743 743 745 746 748 750 748 748 750 752 753 753 756 757 760 766 766 767 768 773 786 790 785 783 780 779 777 773 772 773 765 755 753 758 761 764 766 765 765 765 764 764 764 767 775 781 786 787 788 790 791 794 797 798
781 781 780 779 780 780 780 781 782 783 784 784 783 781 779 777 777 777 777 779 781 781 778 776 777 766 747 744 746 743 743 742 741 741 741 742 744 744 747 748 748 749 752 756 756 753 757 760 764 769 769 768 768 771 778 777 774 775 775 776 776 773 772 769 763 754 753 760 763 765 766 764 766 766 765 766 766 771 780 786 790 791 791 792 794 797 799 801
779 779 778 778 778 778 779 779 780 781 782 782 782 781 778 776 776 776 777 777 776 771 767 767 767 757 745 743 742 743 743 740 740 740 739 741 742 743 745 747 749 751 754 758 758 753 756 766 769 767 766 765 764 766 767 767 766 768 771 774 773 773 772 765 761 754 751 761 764 762 767 770 770 767 765 769 774 780 787 791 793 793 794 794 796 799 800 802
777 777 777 777 776 777 777 777 778 779 781 781 782 781 778 775 776 777 776 773 768 765 764 763 763 757 747 742 742 746 747 743 740 738 739 740 740 744 746 746 752 756 755 755 756 753 756 766 767 762 761 759 760 762 762 764 765 766 771 774 774 774 771 763 759 754 750 759 763 763 776 785 780 772 771 775 782 790 792 792 794 794 795 796 797 800 802 804
775 775 775 774 773 774 775 776 777 777 780 780 780 780 776 773 774 776 776 773 765 762 762 760 760 755 745 742 746 750 753 750 743 737 737 738 739 744 745 746 753 757 755 754 756 759 762 764 761 757 757 755 758 760 760 763 764 768 772 776 777 773 769 765 758 753 753 758 765 773 788 797 790 783 782 783 786 793 793 792 793 793 795 798 800 803 804 805
773 773 773 772 771 773 774 775 775 776 777 777 778 777 773 772 774 775 775 774 765 757 757 757 758 753 743 742 745 749 753 751 745 737 733 735 737 740 743 747 753 754 754 755 757 764 767 762 755 753 753 755 759 759 760 763 765 769 773 778 778 770 772 772 763 755 753 757 769 782 794 800 797 792 791 792 790 792 794 793 793 794 797 800 801 803 806 807
771 771 771 770 770 772 773 774 775 774 773 775 776 772 771 772 774 775 776 774 765 754 750 750 751 747 739 738 742 746 748 745 743 735 729 733 736 738 741 744 751 754 753 753 755 761 762 753 748 750 752 755 759 759 761 765 768 769 771 775 774 768 770 771 764 757 757 764 770 779 797 806 802 799 797 796 795 795 797 796 797 799 800 801 803 805 807 808
769 770 769 769 770 770 772 774 772 771 771 773 772 768 770 771 772 776 777 775 768 753 745 744 744 737 730 736 740 740 743 740 735 731 727 729 732 737 740 741 747 752 752 751 754 759 756 747 745 750 752 753 757 759 759 763 770 771 768 768 765 765 768 766 763 763 772 783 771 768 800 818 807 802 801 798 799 800 801 800 801 803 803 804 807 808 809 810
768 768 767 768 768 769 772 772 770 770 770 770 768 767 769 770 772 774 776 779 769 748 740 740 738 726 721 731 736 737 745 738 726 726 727 727 728 733 740 740 741 747 748 748 751 753 750 744 743 749 752 753 756 758 755 758 771 774 763 757 757 761 767 764 764 770 780 784 767 758 790 819 813 806 803 800 802 805 804 804 804 805 805 806 808 809 810 812
766 766 766 767 767 769 771 770 769 769 769 768 766 768 769 769 772 771 775 778 759 735 731 734 730 720 716 723 727 735 743 730 719 723 724 725 726 728 738 740 740 743 740 744 753 747 742 744 744 745 750 753 756 756 751 753 767 769 754 749 755 760 765 763 762 770 772 769 766 761 776 806 814 807 804 802 803 806 806 807 807 806 808 808 809 810 811 813
766 766 766 767 767 768 769 769 769 767 768 767 765 767 766 766 769 770 775 765 736 721 725 726 721 716 715 718 722 729 728 719 721 723 717 721 723 724 736 737 737 741 734 742 756 744 736 744 744 743 750 752 751 748 745 749 760 757 746 747 752 755 759 759 759 765 763 765 777 775 773 799 816 806 803 805 804 808 809 808 809 809 809 810 811 812 812 813
766 765 766 767 767 768 768 769 769 767 767 766 765 765 763 764 764 767 773 753 722 715 717 716 717 716 716 720 724 725 721 718 720 716 712 717 719 721 731 732 732 738 734 737 748 741 733 737 736 739 747 747 744 742 740 746 752 746 743 747 748 752 755 754 759 762 763 771 783 778 770 793 817 810 804 808 805 806 810 809 810 810 811 812 813 813 813 814
766 765 766 767 767 768 768 769 768 768 768 765 765 763 761 763 763 771 776 747 717 713 711 713 718 716 717 723 726 727 724 721 716 712 713 716 718 720 725 726 728 735 736 736 740 736 730 729 730 733 736 737 737 738 737 740 744 741 743 749 751 756 754 753 758 760 769 779 776 773 768 778 807 811 802 803 799 798 805 808 810 811 812 813 814 814 815 816
766 766 766 767 767 768 768 769 768 767 768 765 764 763 762 762 765 774 767 733 713 715 713 717 717 713 718 723 725 726 726 723 716 714 717 718 721 723 725 728 731 736 741 741 740 737 732 731 730 727 727 730 734 736 735 735 739 741 745 751 759 766 763 762 766 765 779 784 768 768 768 767 792 806 799 796 795 795 800 803 807 810 812 813 814 815 816 817
766 766 766 766 767 768 768 768 768 767 767 765 765 765 764 767 770 770 752 724 718 719 714 717 716 714 718 720 721 723 724 724 718 716 718 720 725 726 726 729 733 741 749 748 745 742 738 732 728 726 723 725 732 741 741 736 738 744 749 756 769 778 778 780 780 777 781 777 763 764 767 772 793 803 798 796 795 797 801 802 805 807 810 813 814 816 817 819
766 765 766 766 766 767 767 768 768 768 768 766 767 764 763 771 770 758 745 732 725 720 713 713 712 712 717 720 720 720 722 723 719 718 717 718 726 728 725 724 725 736 745 746 747 748 746 737 728 728 725 720 726 740 746 743 741 746 751 758 771 780 786 791 790 786 781 771 766 764 762 781 803 803 799 799 797 798 802 804 806 808 810 813 814 817 818 820
765 765 765 765 766 766 766 767 767 767 768 767 768 765 766 770 758 741 741 738 728 721 716 714 712 712 716 720 718 717 723 724 718 719 718 719 727 730 727 724 722 727 735 742 746 746 751 747 731 726 725 718 720 728 733 737 739 742 742 749 762 766 772 783 783 780 777 770 772 774 774 792 808 805 801 801 799 801 803 806 808 810 812 814 816 818 819 821
765 764 764 764 764 765 764 766 766 766 768 768 768 768 767 763 750 741 743 739 732 727 721 715 711 714 718 718 716 714 718 722 719 719 720 719 725 727 725 725 722 724 730 740 743 738 745 743 722 716 717 713 718 719 719 729 739 739 736 743 755 750 751 767 771 769 769 767 778 793 799 804 808 807 805 802 804 806 807 808 810 812 814 815 818 820 820 822
764 763 763 762 762 762 763 765 765 766 768 767 768 768 763 754 749 750 748 741 737 733 728 718 708 714 723 720 718 715 714 718 719 722 722 719 720 722 721 720 719 720 725 733 737 734 741 738 717 713 716 710 713 715 713 724 735 737 739 742 741 734 737 756 770 771 767 770 790 807 810 810 809 809 809 806 808 811 811 812 812 814 816 817 820 822 823 823
764 762 762 761 760 761 762 764 765 767 768 767 767 763 756 749 747 750 747 741 738 732 733 729 713 712 721 720 719 717 716 720 720 722 724 719 718 718 717 716 714 716 719 723 727 726 732 734 718 713 719 712 707 710 711 713 719 731 739 734 730 733 737 745 764 775 769 777 801 809 806 809 809 809 811 809 811 813 814 814 814 815 817 819 822 824 824 824
764 763 761 758 757 759 762 764 765 767 767 766 765 759 752 750 748 746 744 741 737 731 734 735 721 712 714 717 717 713 716 723 722 720 721 719 717 712 712 714 711 711 713 716 724 721 723 733 723 711 715 712 704 711 719 714 710 718 724 721 728 744 749 749 761 773 774 790 811 811 805 807 805 806 810 809 810 812 814 815 816 817 818 820 823 825 826 826
764 763 761 757 756 758 761 764 765 767 766 765 766 759 753 752 747 742 741 739 735 733 733 733 726 718 713 711 712 710 714 721 719 718 719 718 716 710 707 709 709 710 710 713 722 720 720 734 730 711 708 710 709 716 726 724 716 714 717 720 726 736 742 748 756 762 770 793 811 810 809 806 800 800 802 804 808 809 812 815 815 817 819 821 823 826 827 827
764 764 762 758 758 759 761 764 765 767 767 765 763 759 753 751 745 740 740 739 735 733 733 731 727 724 717 710 709 707 710 715 715 717 717 714 715 712 705 704 706 708 708 711 718 719 721 733 733 718 709 713 717 716 718 724 723 721 725 730 731 732 735 742 751 753 760 782 800 806 809 804 795 793 794 798 804 805 808 812 814 816 819 821 824 825 827 827
763 764 762 759 760 761 761 764 765 766 767 764 761 757 752 749 745 742 739 738 735 730 728 727 725 725 722 715 710 705 707 712 712 713 713 712 715 714 705 699 701 703 708 715 718 718 722 729 732 726 720 719 715 706 705 713 717 719 725 729 731 733 738 748 758 754 751 768 785 794 800 799 793 790 789 795 800 803 807 811 814 818 820 823 825 825 827 828
763 764 762 760 761 761 762 764 764 764 765 762 757 752 749 746 744 743 738 735 732 726 722 723 722 721 721 716 710 706 705 708 710 710 710 709 710 707 699 695 696 698 705 714 716 714 717 724 729 728 723 718 709 700 701 706 709 713 717 722 727 731 735 746 757 753 754 769 779 783 791 794 792 789 789 794 799 802 807 810 815 820 821 823 826 826 828 829
764 764 761 761 761 761 763 765 764 764 763 758 752 748 746 745 743 741 736 732 730 723 720 721 718 715 714 711 709 707 705 705 707 706 705 705 703 698 692 692 694 696 702 710 713 711 715 724 728 727 723 715 706 701 700 702 708 715 717 719 725 729 730 735 740 741 753 771 775 778 790 794 790 787 789 795 800 804 809 812 816 820 822 824 825 826 828 829
764 764 761 761 761 762 765 766 764 763 760 755 752 748 744 742 740 737 734 731 728 723 720 718 714 712 711 709 708 706 703 704 705 702 701 702 698 691 689 690 692 694 699 705 706 707 718 726 727 731 735 730 723 719 714 711 713 717 719 718 720 723 726 732 734 736 750 766 763 767 788 797 790 788 791 797 803 808 813 815 816 819 822 824 825 827 829 829
764 763 762 761 761 763 765 764 763 763 760 757 756 750 745 741 733 730 729 726 723 721 718 713 710 710 709 707 708 704 699 701 704 701 700 699 692 685 686 689 690 691 693 695 697 702 716 724 723 731 743 745 741 736 729 723 721 719 717 716 719 722 723 731 739 740 750 763 760 763 785 798 794 792 796 800 805 811 814 816 817 818 821 823 825 828 830 830
764 765 765 764 763 763 764 762 763 764 761 759 756 748 744 741 729 723 723 721 717 714 712 710 709 710 709 708 709 706 700 700 701 702 703 704 694 682 681 685 686 688 689 691 694 700 712 719 717 723 732 734 734 730 722 718 721 722 718 715 720 723 722 728 738 741 747 760 767 770 780 792 797 797 799 802 806 810 814 816 817 819 821 823 826 829 830 832
764 764 764 765 765 766 765 761 761 761 757 756 753 744 740 737 729 723 721 718 714 711 710 710 710 711 712 711 710 709 705 702 702 704 707 707 697 681 677 682 684 684 686 690 692 698 712 721 717 719 727 725 724 725 721 719 722 724 721 717 717 723 728 731 733 738 745 755 770 779 777 783 794 796 796 801 803 807 811 813 815 817 820 823 826 828 831 833
763 762 760 760 762 763 762 759 758 757 755 753 750 743 739 735 730 728 724 719 714 712 713 714 713 713 712 710 710 711 709 706 708 709 708 707 702 690 685 686 683 682 685 689 691 694 708 720 718 723 733 731 729 729 726 727 733 734 730 724 719 720 727 730 732 739 740 739 758 778 778 779 789 793 794 798 800 804 808 810 812 815 818 822 825 828 831 833
763 763 759 758 759 757 755 753 752 752 751 749 745 739 736 732 730 731 728 725 722 717 716 718 717 715 713 708 708 712 712 711 713 713 711 710 708 703 701 698 692 688 688 690 692 692 704 720 722 724 735 739 738 737 730 730 739 743 742 740 734 730 731 736 742 747 744 741 755 774 780 785 790 793 796 800 802 805 808 809 811 814 818 821 824 828 831 833
764 763 761 760 758 755 751 749 748 748 746 744 741 736 733 732 733 734 732 730 730 723 718 721 720 717 716 711 708 711 713 712 713 714 713 712 711 709 709 708 703 697 692 692 695 692 702 722 724 721 735 746 744 741 735 732 737 744 748 749 746 742 743 746 751 753 756 762 770 775 783 793 796 796 799 803 805 807 810 812 813 815 818 821 824 828 832 834
764 762 761 761 758 753 750 749 749 748 746 744 742 738 735 735 736 737 733 729 728 725 721 722 721 719 716 712 709 710 710 709 710 711 709 710 710 709 708 708 706 704 700 697 698 695 700 719 724 722 738 751 748 746 743 736 736 743 750 754 754 751 750 752 755 754 757 769 779 782 785 791 796 798 801 805 807 809 812 813 815 817 819 821 824 828 831 834
764 762 759 761 759 752 751 752 750 749 746 744 742 741 740 738 736 737 736 729 725 723 722 722 723 722 719 716 711 708 707 706 706 707 706 706 707 706 707 708 706 707 707 703 702 701 701 712 722 727 741 754 753 749 743 735 736 748 757 761 762 760 756 754 758 759 758 764 773 776 777 784 791 795 800 806 809 811 812 813 814 816 819 822 825 828 831 834